Home > Weather > Lanzhou > Past weeks

Flag for China Weather for the Past 2 Weeks in Lanzhou, Gansu, China

Now
34 °F

Passing clouds.


Feels Like: 31 °F
Forecast: 20 / 48 °F
Wind: 3 mph from South

Location: Lanzhou / Zhongchuan

Current Time: Feb 9, 2016 at 11:42:31 AM

Latest Report: Feb 9, 2016 at 11:00 AM


Visibility: N/A

Pressure: 30.04 "Hg (24.78 "Hg at 1543m altitude)

Humidity: 21%

Dew point: -2 °F

Location of LanzhouLocation

Historic Weather in Lanzhou — Graph

°F

Lanzhou Temperature Yesterday

Maximum temperature yesterday: 46 °F (at 4:00 PM)
Minimum temperature yesterday: 7 °F (at 7:00 AM)
Average temperature yesterday: 26 °F

High & Low Weather Summary for the Past Weeks

 TemperatureHumidityPressure
High48 °F (Feb 7, 4:00 PM)85% (Feb 4, 7:00 AM)30.51 "Hg (Feb 4, 7:00 AM)
Low-8 °F (Jan 26, 7:00 AM)9% (Feb 8, 4:00 PM)29.86 "Hg (Jan 27, 6:00 AM)
Average15 °F53%30.19 "Hg
* Reported Jan 25 10:00 AM — Feb 9 10:00 AM, Lanzhou, Weather by CustomWeather, © 2016

Note: Actual official high and low records may vary slightly from our data, if they occured in-between our weather recording intervals... More about our weather records

Advertising

Lanzhou Weather History for the Previous 24 Hours

 ConditionsComfort  
Time TempWeatherWind HumidityBarometerVisibility
10:00 AM
Tue, Feb 9
25 °FSunny.1 mph33%30.07 "Hg10 mi
9:00 AM16 °FSunny.6 mph41%30.07 "Hg10 mi
8:00 AM7 °FClear.6 mph51%30.07 "Hg10 mi
7:00 AM9 °FClear.3 mph47%30.04 "Hg10 mi
6:00 AM16 °FClear.3 mph37%30.04 "Hg10 mi
5:00 AM16 °FClear.6 mph37%30.04 "Hg10 mi
4:00 AM18 °FClear.10 mph35%30.07 "Hg10 mi
3:00 AM19 °FClear.8 mph32%30.07 "Hg10 mi
2:00 AM18 °FClear.8 mph35%30.09 "Hg10 mi
1:00 AM16 °FClear.8 mph37%30.09 "Hg10 mi
12:00 AM16 °FClear.8 mph34%30.12 "Hg10 mi
11:00 PM
Mon, Feb 8
18 °FClear.8 mph35%30.09 "Hg10 mi
10:00 PM18 °FClear.6 mph35%30.09 "Hg10 mi
9:00 PM21 °FClear.1 mph32%30.09 "Hg10 mi
8:00 PM30 °FPassing clouds.3 mph24%30.07 "HgN/A
7:00 PM37 °FSunny.6 mph18%30.04 "Hg10 mi
6:00 PM45 °FSunny.1 mph13%30.01 "Hg10 mi
5:00 PM46 °FPassing clouds.6 mph12%30.01 "HgN/A
4:00 PM46 °FPassing clouds.3 mph9%30.01 "HgN/A
3:00 PM45 °FPassing clouds.6 mph10%30.04 "HgN/A
2:00 PM43 °FPassing clouds.8 mph11%30.04 "HgN/A
1:00 PM41 °FPassing clouds.6 mph13%30.09 "HgN/A
12:00 PM37 °FPassing clouds.6 mph17%30.12 "HgN/A
11:00 AM32 °FPassing clouds.3 mph25%30.12 "HgN/A
Weather by CustomWeather, © 2016

See weather overviewHow to use our weather pages